Zurück zum Katalog

STARLINK-1564

AktivKommunikationVLEO
NORAD 46058·PAYLOAD·🇺🇸 United States

Gestartet Aug 7, 2020 von Cape Canaveral Space Force Station

Loading…

Nächste Überflüge (nächste 24 Stunden)

TLE

AktuellSource: CelesTrak SupGP

Epoche: Sep 14, 2026, 13:08 UTC

1 46058C 20055AH  26257.54770833  .00034186  00000+0  10993-2 0  2576
2 46058  53.1570 316.5664 0001080  88.3476  66.7210 15.31686668    15

Verfolge STARLINK-1564 in Echtzeit mit AllMySat

Download on the App Store